ONEWEB-0300 (49089 NORAD) Tracking and Keplerian Element Data

This shows tracking and keplerian element data for the satellite.

Feedback or suggestion? Click here.




ElementValue
Catalog49089
NameONEWEB-0300
Epoch Orbit354
Epoch Day300.58334491
Epoch Year2021
RAAN344.2505
Inclination87.5375
Eccentricity0.0021573
Argument of Perigee68.7527
Mean Anonmoly152.3111
Mean Motion14.85810078
Decay Rate0.00040268
L11 49089U 21075Q 21300.58334491 .00040268 00000-0 45879-2 0 9993
L22 49089 87.5375 344.2505 0021573 68.7527 152.3111 14.85810078 3541

Live tracking and technical data element details for ONEWEB-0300 (NORAD 49089). ONEWEB-0300 can be tracked NOW for your location showing map with azimuth and elevation plus other details from your city location.

Track the satellite on the map from your city or location and see movement details for azimuth, elevation, latitude, longitude, range, height, and movement on the map or in text.







IsCatalogInMostPopularTable: catalog: 49089, numindb: 16
Update: records affected: 1



GetName: 49089 ONEWEB-0300

Hit Count: updated at: Thu, 28 Oct 2021 10:14:13 GMT